STARLINK-32371

Last updated on Tue Oct 01 2024 00:02:04 GMT+0000 (Coordinated Universal Time)

1 60916U 24154P 24274.21697957 -.00000174 00000+0 49322-5 0 9990 2 60916 53.1613 205.2469 0001348 94.6326 265.4837 15.49319117 5873
UTC large
Height (km)
Speed (km/s)
/
Latitude / Longitude
Inclination (degrees)
Orbital Period (minutes)
Azimuth
Elevation
Range (km)
Doppler Factor

Next 0 passes for location: London (51.5072 / 0.1276)

Sorry there are no passes over London.